Flight Track Log - Related Links

Times and Time Zones

All times are in EDT time to prevent confusion due to time zone crossing. See the SWA3481 flight status page for this flight to view local times or setup timezone preferences in your user account.

Time Position Orientation Groundspeed Altitude Reporting Facility
EDT Latitude Longitude Course Direction KTS MPH feet Rate Location/Type
Thu 12:46:21 AM 34.2019 -118.4042 318° Northwest 180 207 2,800  Level Los Angeles Center
Thu 12:51:21 AM 34.4736 -118.7014 337° Northwest 296 341 19,800 3,317 Climbing Los Angeles Center
Thu 12:52:21 AM 34.5458 -118.7389 338° Northwest 302 348 22,700 3,050 Climbing Los Angeles Center
Thu 12:53:21 AM 34.6347 -118.7822 337° Northwest 326 375 25,900 2,400 Climbing Los Angeles Center
Thu 12:54:21 AM 34.7294 -118.8308 339° North 344 396 27,500 1,950 Climbing Los Angeles Center
Thu 12:55:21 AM 34.8389 -118.8825 343° North 394 453 29,800 2,250 Climbing Los Angeles Center
Thu 12:56:21 AM 34.9547 -118.9269 339° North 420 483 32,000 2,650 Climbing Los Angeles Center
Thu 12:57:21 AM 35.0683 -118.9789 340° North 432 497 35,100 2,000 Climbing Los Angeles Center
Thu 12:58:21 AM 35.1778 -119.0283 340° North 426 490 36,000 800 Climbing Los Angeles Center
Thu 12:59:21 AM 35.2914 -119.0783 340° North 426 490 36,700 1,550 Climbing Los Angeles Center
Thu 01:00:21 AM 35.3989 -119.1256 339° North 426 490 39,100 1,094 Climbing Los Angeles Center
Thu 01:02:22 AM 35.6158 -119.2267 340° North 419 482 40,000 298 Climbing Oakland Center
Thu 01:03:22 AM 35.7231 -119.2753 340° North 412 474 40,000  Level Oakland Center
Thu 01:04:22 AM 35.8300 -119.3242 341° North 412 474 40,000  Level Oakland Center
Thu 01:05:22 AM 35.9328 -119.3683 339° North 407 468 40,000  Level Oakland Center
Thu 01:06:22 AM 36.0525 -119.4247 340° North 412 474 40,000  Level Oakland Center
Thu 01:07:22 AM 36.1594 -119.4742 339° North 412 474 40,000  Level Oakland Center
Thu 01:08:22 AM 36.2625 -119.5236 340° North 412 474 40,000  Level Oakland Center
Thu 01:09:22 AM 36.3694 -119.5731 339° North 412 474 40,000  Level Oakland Center
Thu 01:10:22 AM 36.4742 -119.6228 338° Northwest 412 474 40,000  Level Oakland Center
Thu 01:11:22 AM 36.5708 -119.6703 339° North 412 474 40,000  Level Oakland Center
Thu 01:12:22 AM 36.6756 -119.7203 340° North 412 474 40,000  Level Oakland Center
Thu 01:13:22 AM 36.7931 -119.7728 335° Northwest 418 481 40,000  Level Oakland Center
Thu 01:14:22 AM 36.9000 -119.8361 322° Northwest 412 474 40,000 -350 Level Oakland Center
Thu 01:15:22 AM 36.9822 -119.9153 321° Northwest 398 458 39,300 -1,300 Descending Oakland Center
Thu 01:16:22 AM 37.0747 -120.0078 322° Northwest 393 452 37,400 -1,500 Descending Oakland Center
Thu 01:17:22 AM 37.1589 -120.0900 321° Northwest 382 440 36,300 -1,950 Descending Oakland Center
Thu 01:18:22 AM 37.2428 -120.1753 321° Northwest 382 440 33,500 -8,150 Descending Oakland Center
Thu 01:19:22 AM 37.3289 -120.2631 322° Northwest 388 447 20,000 -4,950 Descending Oakland Center
Thu 01:20:22 AM 37.4211 -120.3536 321° Northwest 408 470 23,600 500 Climbing Oakland Center
Thu 01:21:22 AM 37.4947 -120.4289 332° Northwest 396 456 21,000 -2,374 Descending Oakland Center
Thu 01:21:53 AM 37.5500 -120.4667 315° West 360 414 20,000 -593 Descending Northern Cal TRACON
Thu 01:22:53 AM 37.6167 -120.5500 322° Northwest 354 407 20,100 -446 Climbing Northern Cal TRACON
Thu 01:23:54 AM 37.7000 -120.6333 322° Northwest 356 410 19,100 -1,041 Descending Northern Cal TRACON
Thu 01:24:54 AM 37.7667 -120.7000 328° Northwest 321 369 18,000 -1,091 Descending Northern Cal TRACON
Thu 01:25:55 AM 37.8500 -120.7667 322° Northwest 314 361 16,900 -992 Descending Northern Cal TRACON
Thu 01:26:55 AM 37.9167 -120.8333 322° Northwest 306 352 16,000 -992 Descending Northern Cal TRACON
Thu 01:27:56 AM 37.9833 -120.9000 315° West 309 356 14,900 -1,041 Descending Northern Cal TRACON
Thu 01:28:56 AM 38.0500 -120.9833 322° Northwest 318 366 13,900 -992 Descending Northern Cal TRACON
Thu 01:29:57 AM 38.1167 -121.0500 307° West 310 357 12,900 -992 Descending Northern Cal TRACON
Thu 01:30:57 AM 38.1667 -121.1333 307° West 298 343 11,900 -1,140 Descending Northern Cal TRACON
Thu 01:31:58 AM 38.2167 -121.2167 314° West 301 346 10,600 -1,240 Descending Northern Cal TRACON
Thu 01:32:58 AM 38.2667 -121.2833 330° Northwest 275 316 9,400 -1,587 Descending Northern Cal TRACON
Thu 01:33:59 AM 38.3333 -121.3333 322° Northwest 268 308 7,400 -1,835 Descending Northern Cal TRACON
Thu 01:34:59 AM 38.4000 -121.4000 322° Northwest 262 302 5,700 -1,600 Descending Northern Cal TRACON
Thu 01:35:59 AM 38.4500 -121.4500 330° Northwest 258 297 4,200 -1,636 Descending Northern Cal TRACON
Thu 01:37:00 AM 38.5167 -121.5000 322° Northwest 246 283 2,400 -1,091 Descending Northern Cal TRACON
Thu 01:38:00 AM 38.5667 -121.5500 322° Northwest 219 252 2,000 -347 Descending Northern Cal TRACON
Thu 01:39:01 AM 38.6000 -121.5833 339° North 146 168 1,700 -470 Descending Northern Cal TRACON
Thu 01:39:55 AM 38.6333 -121.6000 360° North 116 133 1,100 -595 Descending Northern Cal TRACON
Thu 01:41:02 AM 38.6667 -121.6000 360° North 112 129 500 -472 Descending Northern Cal TRACON
Thu 01:42:02 AM 38.7000 -121.6000 360° North 122 140 100 -400 Descending Northern Cal TRACON

Login

Don't have an account? Register now (free) for customized features, flight alerts, and more!